EHI
0 0 0 0 0 0 0 0 0 0 0 0 0 0 0 0 0 0 0 0 0 0 0 0 0 0 0 0 0 0 0 0 0 0 0 0 0 0 0 0 0 0 0 0
0 0 0 0 0 0 0 0 0 0 0 0 0 0 0 0 0 0 0 0 0 0 0 0 0 0 0 0 0 0 0 0 0 0 0 0 0 0 0 0 0 0 0 0
0 0 0 0 0 0 0 0 0 0 0 0 0 0 0 0 0 0 0 0 0 0 0 0 0 0 0 0 0 0 0 0 0 0 0 0 0 0 0 0 0 0 0 0
0 0 0 0 0 0 0 0 0 0 0 0 0 0 0 0 0 0 0 0 0 0 0 0 0 0 0 0 0 0 0 0 0 0 0 0 0 0 0 0 0 0 0 0
0 0 0 0 0 0 0 0 0 0 0 0 0 0 0 0 0 0 0 0 0 0 0 0 0 0 0 0 0 0 0 0 0 0 0 0 0 0 0 0 0 0 0 0
0 0 0 0 0 0 0 0 0 0 0 0 0 0 0 0 0 0 0 0 0 0 0 0 0 0 0 0 0 0 0 0 0 0 0 0 0 0 0 0 0 0 0 0
0 0 0 0 0 0 0 0 0 0 0 0 0 0 0 0 0 0 0 0 0 0 0 0 0 0 0 0 0 0 0 0 0 0 0 0 0 0 0 0 0 0 0 0
0 0 0 0 0 0 0 0 0 0 0 0 0 0 0 0 0 0 0 0 0 0 0 0 0 0 0 0 0 0 0 0 0 0 0 0 0 0 0 0 0 0 0 0
0 0 0 0 0 0 0 0 0 0 0 0 0 0 0 0 0 0 0 0 0 0 0 0 0 0 0 0 0 0 0 0 0 0 0 0 0 0 0 0 0 0 0 0
0 0 0 0 0 0 0 0 0 0 0 0 0 0 0 0 0 0 0 0 0 0 0 0 0 0 0 0 0 0 0 0 0 0 0 0 0 0 0 0 0 0 0 0
0 0 0 0 0 0 0 0 0 0 0 0 0 0 0 0 0 0 0 0 0 0 0 0 0 0 0 0 0 0 0 0 0 0 0 0 0 0 0 0 0 0 0 0
0 0 0 0 0 0 0 0 0 0 0 0 0 0 0 0 0 0 0 0 0 0 0 0 0 0 0 0 0 0 0 0 0 0 0 0 0 0 0 0 0 0 0 0
0 0 0 0 0 0 0 0 0 0 0 0 0 0 0 0 0 0 0 0 0 0 0 0 0 0 0 0 0 0 0 0 0 0 0 0 0 0 0 0 0 0 0 0
0 0 0 0 0 0 0 0 0 0 0 0 0 0 0 0 0 0 0 0 0 0 0 0 0 0 0 0 0 0 0 0 0 0 0 0 0 0 0 0 0 0 0 0
0 0 0 0 0 0 0 0 0 0 0 0 0 0 0 0 0 0 0 0 0 0 0 0 0 0 0 0 0 0 0 0 0 0 0 0 0 0 0 0 0 0 0 0
0 0 0 0 0 0 0 0 0 0 0 0 0 0 0 0 0 0 0 0 0 0 0 0 0 0 0 0 0 0 0 0 0 0 0 0 0 0 0 0 0 0 0 0
0 0 0 0 0 0 0 0 0 0 0 0 0 0 0 0 0 0 0 0 0 0 0 0 0 0 0 0 0 0 0 0 0 0 0 0 0 0 0 0 0 0 0 0
0 0 0 0 0 0 0 0 0 0 0 0 0 0 0 0 0 0 0 0 0 0 0 0 0 0 0 0 0 0 0 0 0 0 0 0 0 0 0 0 0 0 0 0
0 0 0 0 0 0 0 0 0 0 0 0 0 0 0 0 0 0 0 0 0 0 0 0 0 0 0 0 0 0 0 0 0 0 0 0 0 0 0 0 0 0 0 0
0 0 0 0 0 0 0 0 0 0 0 0 0 0 0 0 0 0 0 0 0 0 0 0 0 0 0 0 0 0 0 0 0 0 0 0 0 0 0 0 0 0 0 0
0 0 0 0 0 0 0 0 0 0 0 0 0 0 0 0 0 0 0 0 0 0 0 0 0 0 0 0 0 0 0 0 0 0 0 0 0 0 0 0 0 0 0 0
0 0 0 0 0 0 0 0 0 0 0 0 0 0 0 0 0 0 0 0 0 0 0 0 0 0 0 0 0 0 0 0 0 0 0 0 0 0 0 0 0 0 0 0
0 0 0 0 0 0 0 0 0 0 0 0 0 0 0 0 0 0 0 0 0 0 0 0 0 0 0 0 0 0 0 0 0 0 0 0 0 0 0 0 0 0 0 0
0 0 0 0 0 0 0 0 0 0 0 0 0 0 0 0 0 0 0 0 0 0 0 0 0 0 0 0 0 0 0 0 0 0 0 0 0 0 0 0 0 0 0 0
0 0 0 0 0 0 0 0 0 0 0 0 0 0 0 0 0 0 0 0 0 0 0 0 0 0 0 0 0 0 0 0 0 0 0 0 0 0 0 0 0 0 0 0
0 0 0 0 0 0 0 0 0 0 0 0 0 0 0 0 0 0 0 0 0 0 0 0 0 0 0 0 0 0 0 0 0 0 0 0 0 0 0 0 0 0 0 0
0 0 0 0 0 0 0 0 0 0 0 0 0 0 0 0 0 0 0 0 0 0 0 0 0 0 0 0 0 0 0 0 0 0 0 0 0 0 0 0 0 0 0 0
Wind_Speed
12 13 12 12 12 10 11 11 10 11 11 11 8 7 5 4 4 3 1 2 4 6 6 7 7 8 8 9 10 10 10 11 11 11 11 11 11 11 10 10 10 10 10 10
12 12 12 13 12 11 12 12 14 14 13 9 8 7 5 4 4 3 2 1 1 3 6 7 8 8 9 9 9 10 11 10 10 11 11 11 11 11 10 10 10 10 10 10
7 9 10 9 8 9 9 8 9 11 10 10 9 8 6 5 4 3 3 1 1 2 3 6 7 8 9 9 9 10 10 10 11 11 12 11 11 11 11 11 10 10 10 10
6 7 7 5 3 5 7 5 4 7 8 9 10 8 4 6 6 5 4 3 2 1 2 3 5 7 7 9 9 10 10 10 11 11 12 11 12 12 10 10 10 9 9 10
4 6 10 6 4 5 5 2 4 6 8 10 12 7 2 8 8 6 4 4 2 1 1 3 6 7 8 8 9 10 10 11 11 12 13 12 12 11 10 10 9 9 9 10
4 6 6 3 7 8 4 1 5 6 8 9 9 4 5 10 9 7 6 5 3 1 1 3 6 8 9 9 10 10 11 11 11 11 12 13 12 11 9 10 9 9 9 9
7 7 7 4 6 5 1 3 6 6 7 7 5 5 8 9 8 7 6 5 4 1 2 3 6 8 9 9 9 9 9 10 11 11 11 12 11 10 11 10 10 10 10 8
5 7 6 4 3 1 3 4 5 6 6 7 7 8 8 8 7 7 6 5 4 1 1 2 5 7 8 8 8 9 10 11 11 11 11 11 12 11 11 12 12 11 10 9
5 6 5 3 2 2 2 5 6 6 7 8 8 8 9 8 8 6 6 5 4 1 0 2 4 6 8 8 10 11 11 11 12 12 11 11 12 12 11 10 9 9 9 8
6 7 7 7 5 3 4 6 7 7 7 7 8 8 8 8 7 6 5 4 3 1 1 2 3 4 6 9 11 12 12 12 12 12 11 10 8 9 9 9 9 9 9 9
10 10 9 8 6 6 6 7 8 8 8 7 7 8 8 7 7 6 5 4 3 2 2 3 3 4 6 9 12 13 12 12 12 11 12 11 9 6 7 6 9 11 9 9
10 8 8 9 8 7 8 9 9 8 9 7 7 8 8 7 6 5 5 5 3 2 2 3 4 5 7 9 12 14 13 12 10 10 10 11 12 11 14 12 15 15 13 12
12 10 10 11 11 10 10 10 9 8 8 8 7 7 7 7 6 5 5 5 4 3 2 3 5 6 7 8 11 12 13 12 10 11 11 11 11 12 12 13 18 17 17 17
10 9 12 11 11 9 9 9 8 8 8 7 6 7 6 6 6 6 6 5 3 2 3 4 6 6 6 9 11 12 12 13 12 10 11 11 10 10 11 12 11 9 12 17
10 9 11 11 10 10 8 8 8 8 7 7 6 6 5 5 6 6 5 3 2 3 4 5 6 6 7 9 11 13 12 11 11 11 10 11 11 11 11 11 11 10 8 10
9 9 9 10 10 9 8 8 8 8 6 6 6 6 5 5 5 4 3 2 3 4 5 5 6 7 8 10 12 11 10 15 14 12 11 11 11 11 11 11 10 9 8 8
8 9 9 9 10 9 9 8 7 7 6 6 6 5 4 4 4 3 2 1 2 3 4 5 6 7 8 10 11 10 11 14 17 13 11 11 11 11 10 10 10 9 7 8
7 9 9 9 9 9 9 7 6 6 5 5 5 4 4 4 3 3 2 2 3 3 3 4 6 8 9 10 10 10 11 11 11 11 11 10 10 10 10 10 11 10 8 8
7 8 9 9 8 8 8 7 6 5 5 4 4 4 4 3 3 3 3 4 5 5 4 6 10 10 10 11 12 10 12 12 12 11 11 15 12 10 10 10 10 9 8 7
8 9 9 9 8 7 7 6 5 4 4 3 3 3 3 3 3 3 4 3 2 3 6 8 9 10 10 12 13 10 12 13 13 12 11 11 11 10 10 10 10 9 8 7
9 9 9 9 8 7 6 6 4 4 3 3 3 3 3 2 3 4 5 4 2 5 8 11 8 8 9 12 14 11 12 12 12 12 12 11 11 10 10 10 9 9 8 7
8 9 9 8 8 7 5 4 3 3 2 2 2 3 3 4 4 4 4 4 5 8 7 7 7 11 14 15 10 11 12 12 12 11 11 11 11 10 10 10 9 8 7 7
9 9 8 8 7 6 5 3 2 2 2 3 3 4 4 4 4 5 5 4 5 10 8 7 13 19 19 12 10 11 12 12 12 11 10 10 10 10 10 10 8 8 7 7
9 8 8 7 6 4 4 2 1 1 1 2 3 4 5 5 4 3 5 10 12 12 9 13 19 20 18 10 10 11 11 11 11 11 10 10 9 9 9 9 8 7 7 7
8 7 6 6 4 3 2 1 1 2 2 2 3 4 4 4 5 6 7 10 14 14 10 14 20 19 12 10 11 11 10 10 11 11 10 10 10 9 9 8 8 7 7 6
7 6 5 4 3 2 2 2 2 2 3 4 4 5 5 6 7 7 8 10 13 14 10 9 11 13 10 10 11 11 11 12 12 10 10 10 10 9 9 8 9 7 6 6
6 4 3 2 1 1 2 2 3 3 4 5 6 6 7 7 8 8 9 9 10 9 9 9 9 9 10 10 11 11 10 10 10 10 9 9 8 8 8 9 7 6 6 5
Wind_Direction
284 288 283 274 269 258 243 241 248 266 274 285 306 320 332 353 8 21 120 162 172 168 163 162 160 160 159 163 163 161 163 168 172 170 168 165 164 164 162 162 163 162 162 164
286 285 287 279 269 259 253 247 252 268 275 292 313 324 343 360 13 17 35 93 155 170 164 164 159 156 155 156 158 158 162 163 160 160 160 159 158 156 154 154 153 155 159 159
283 296 301 272 257 248 243 236 245 257 273 312 320 323 340 359 6 15 3 356 169 166 167 161 156 153 155 155 152 156 157 156 156 155 155 154 152 152 154 155 151 152 154 153
279 292 256 256 326 293 254 236 269 280 299 308 307 301 2 26 5 355 348 338 310 194 170 156 145 142 142 146 150 153 153 154 154 153 152 150 149 152 153 151 151 151 149 149
261 272 275 282 325 320 281 261 337 316 319 325 320 303 349 11 352 341 339 331 300 243 165 154 146 141 140 146 147 150 154 155 155 154 152 151 151 150 145 142 141 143 144 144
248 267 271 331 342 323 291 252 346 333 334 338 340 320 324 342 341 343 346 340 334 31 100 141 147 141 144 151 152 157 157 153 151 151 150 150 148 142 136 136 136 134 132 136
234 253 269 325 338 351 350 297 326 334 337 341 330 301 312 325 331 335 336 332 336 77 146 162 151 146 152 154 161 155 145 141 142 144 143 140 135 134 132 130 128 126 122 121
224 239 256 336 358 16 283 304 320 325 326 322 313 312 317 324 328 334 334 336 336 354 151 157 153 151 152 157 148 139 137 136 137 137 135 133 131 131 132 132 128 125 121 115
224 244 281 288 286 271 284 304 311 314 314 314 313 314 318 321 324 325 327 327 323 314 184 159 157 154 154 152 141 137 133 133 131 129 130 133 135 135 134 133 131 131 130 126
265 266 284 292 290 283 286 292 299 304 302 304 305 305 309 314 316 319 319 314 308 283 192 178 162 152 151 145 140 137 135 133 131 129 127 124 125 131 134 138 136 135 135 132
271 277 284 276 275 284 293 300 302 302 299 298 302 302 299 302 306 307 309 302 297 257 212 181 151 142 141 143 139 136 134 133 129 125 123 115 103 101 119 126 143 144 143 141
258 267 276 285 291 297 298 297 296 294 294 291 292 295 296 295 295 293 293 291 287 266 220 168 148 144 144 145 142 139 137 135 131 128 123 119 111 91 73 94 104 109 118 123
262 271 275 282 285 288 287 288 290 290 290 290 288 284 285 285 285 284 282 276 263 244 208 164 147 146 147 146 144 143 141 138 134 132 130 129 125 121 111 88 86 96 107 114
268 273 274 275 279 283 281 283 286 285 282 283 285 285 278 278 281 280 278 272 255 222 186 162 149 151 148 143 140 138 135 134 134 133 132 130 128 126 125 124 116 100 101 113
265 265 269 274 274 275 275 276 276 276 278 282 283 282 277 276 276 276 272 255 229 185 174 161 152 149 142 141 139 137 135 135 131 128 126 125 124 121 119 118 118 118 112 111
278 275 273 273 274 275 276 274 270 271 272 274 278 279 273 270 272 273 264 226 190 182 173 162 157 148 142 139 135 132 130 131 129 128 126 125 124 124 124 124 124 125 126 126
282 279 277 277 276 275 271 268 265 266 267 268 272 272 268 268 269 266 260 209 173 169 159 156 149 138 137 138 135 133 131 129 126 124 126 128 128 128 128 127 127 125 125 134
278 279 277 276 276 278 278 273 267 265 262 265 269 257 250 246 243 236 199 137 122 116 123 139 137 131 132 133 132 131 130 130 130 128 126 125 124 124 125 125 125 124 123 125
306 297 291 285 279 275 276 274 270 264 262 261 251 244 239 228 214 193 161 145 146 144 144 136 133 131 130 132 132 128 127 126 123 122 122 124 121 121 123 124 124 124 126 123
309 305 299 295 289 279 273 271 269 266 261 249 238 228 220 213 184 158 142 143 169 155 142 138 133 130 130 133 129 128 128 128 126 125 123 124 125 124 123 124 124 126 126 125
305 303 302 298 294 289 278 270 260 256 252 229 213 210 199 176 149 143 141 140 134 133 135 135 132 131 130 132 126 127 128 127 127 128 127 127 126 125 125 125 126 127 128 126
300 297 293 291 291 289 285 273 254 245 233 208 190 174 158 148 141 133 132 141 137 136 132 128 127 129 130 128 124 126 125 124 124 125 126 128 129 129 129 128 128 127 126 126
296 293 292 290 287 284 283 276 255 228 210 191 175 169 163 156 151 145 140 136 131 130 125 124 129 129 127 121 122 123 123 123 124 126 126 126 127 129 129 128 127 126 127 127
293 293 290 288 286 275 270 274 260 187 166 160 155 153 149 139 124 116 120 127 126 123 119 125 127 127 122 117 119 119 119 121 121 122 121 120 121 123 124 125 124 124 126 126
293 288 282 278 272 260 249 228 160 140 139 129 117 119 123 124 125 122 119 123 123 118 115 121 123 121 116 115 117 117 118 121 122 123 122 123 124 124 124 124 125 126 127 127
291 287 280 269 258 243 218 194 178 159 147 134 118 111 108 107 111 113 113 113 114 112 111 112 115 112 110 112 113 114 115 118 116 115 119 120 121 122 123 123 122 124 125 125
293 287 278 267 245 218 205 183 165 156 148 139 127 119 117 115 114 113 113 112 111 109 107 106 107 109 110 111 111 110 110 111 113 114 116 117 120 121 123 123 122 122 122 125